Temp
1 -1 -2 -2 -1 -0 -1 -2 -2 -1 0 -0 -1 0 2 2 3 3 4 5 6 7 13 13 14 13 13 14 13 13 13 12 11 11 10 10 9 10 10 10 10 10 10 10
-1 -2 -1 -0 -0 -0 -1 -1 -2 -1 0 0 -1 -0 2 2 2 3 4 5 6 6 8 10 12 13 13 13 14 13 13 13 12 11 11 10 10 9 10 10 10 10 10 10
-1 -1 -0 -0 -1 -0 0 -0 -1 -1 -0 -0 -1 -1 2 4 4 6 6 7 8 8 9 10 10 12 12 13 14 14 14 14 13 11 11 10 9 8 9 9 10 10 10 10
-2 -1 -1 -1 -1 -1 -0 -0 -1 -1 -1 -2 -1 -3 1 2 4 4 5 6 7 7 8 8 9 10 11 13 13 14 14 13 13 12 11 11 11 11 9 11 11 10 10 10
-2 -2 -2 -1 -1 -1 -1 -1 -1 -2 -2 -2 -1 -4 -3 1 2 4 5 6 6 6 7 7 8 10 10 11 13 14 14 13 13 13 12 12 11 11 11 10 10 10 10 10
-2 -1 -1 -1 -1 -1 -1 -1 -1 -1 -2 -7 -0 -1 0 1 2 4 5 6 6 6 6 7 7 9 10 11 12 13 14 13 12 13 13 12 12 11 11 10 9 10 10 10
-3 -2 -2 -1 -2 -1 -1 -4 -8 -7 -9 -5 -0 -0 0 2 3 4 4 5 5 5 5 5 6 6 7 10 11 12 13 13 11 12 12 13 12 12 12 12 10 10 11 10
-7 -7 -3 -1 -2 -3 -2 -2 -6 -6 -3 -2 -0 -1 2 4 5 5 4 4 3 4 4 4 6 6 7 8 10 11 12 12 10 11 12 13 12 12 12 11 11 11 11 12
-7 -5 -2 -2 -1 -2 -2 -4 -1 -3 -4 -3 -1 -0 2 4 3 3 3 2 2 1 4 3 4 6 7 7 9 10 11 12 13 12 12 13 12 12 12 12 11 11 11 12
-8 -8 -3 -2 -2 -1 -2 -1 -6 -5 -8 -5 -2 -0 1 2 2 2 1 1 0 0 0 2 4 4 6 7 8 9 11 12 12 13 13 13 13 12 13 12 12 11 11 12
-7 -8 -5 -3 -4 -3 -3 -3 -7 -7 -5 -3 -4 -1 1 1 1 1 0 -0 -1 -1 -0 1 2 3 5 6 7 9 10 10 11 11 12 12 13 13 12 12 12 12 12 11
-4 -10 -9 -6 -3 -4 -7 -5 -5 -9 -7 -4 -4 -3 1 1 1 -0 -1 -1 -1 -2 -0 0 1 2 3 5 6 7 8 9 11 12 11 11 11 13 12 12 12 12 11 11
-6 -10 -8 -9 -5 -5 -6 -4 -2 -4 -4 -5 -5 -3 2 0 -0 -1 -2 -2 -2 -2 -2 -1 -1 1 2 3 4 6 8 10 9 10 10 8 9 10 12 12 12 12 12 11
-3 -5 -7 -6 -5 -4 -5 -4 -4 -4 -5 -4 -4 -2 -1 -0 -2 -2 -2 -3 -2 -2 -3 -4 -3 -2 2 2 3 5 7 9 9 9 8 8 8 10 11 12 12 12 12 11
-8 -9 -12 -8 -5 -5 -5 -5 -5 -6 -5 -7 -4 -4 -2 -2 -2 -2 -2 -2 -3 -2 -3 -4 -4 -3 -0 2 2 4 6 8 8 8 8 8 8 7 9 11 11 11 11 12
-12 -9 -10 -7 -5 -6 -6 -5 -5 -5 -5 -6 -5 -4 -1 -2 -2 -2 -3 -3 -3 -3 -3 -3 -4 -4 -2 2 2 3 5 7 8 8 8 8 7 7 7 10 10 10 10 11
-7 -7 -7 -7 -11 -12 -9 -7 -5 -4 -4 -7 -6 -3 -3 -3 -2 -2 -3 -4 -3 -3 -3 -3 -4 -4 -3 1 2 3 5 7 7 8 8 8 7 7 7 8 9 9 10 10
-6 -6 -6 -6 -10 -8 -6 -4 -4 -4 -4 -4 -3 -3 -3 -2 -2 -2 -1 -2 -3 -4 -3 -3 -4 -4 -3 0 2 4 5 6 7 8 8 8 7 6 6 6 7 8 9 9
-6 -6 -8 -7 -8 -5 -4 -4 -3 -3 -3 -5 -5 -3 -2 -1 -2 -1 0 -1 -3 -3 -4 -3 -3 -4 -4 -2 2 3 4 6 7 7 8 8 7 7 6 6 6 7 7 8
-6 -6 -8 -12 -9 -8 -4 -2 -1 -3 -5 -2 -3 -3 -4 -2 -3 -1 -0 -0 -2 -3 -3 -3 -2 -3 -3 -2 1 3 4 5 6 7 7 8 7 7 6 6 6 7 7 8
-17 -18 -9 -8 -7 -6 -3 -3 -2 -5 -5 -3 -3 -3 -3 -4 -2 -1 -1 -1 -1 -3 -4 -3 -3 -3 -3 -3 -1 1 3 5 5 7 7 7 7 7 7 6 6 6 6 7
-12 -11 -14 -16 -13 -8 -3 -4 -5 -4 -4 -4 -3 -3 -3 -3 -2 -2 -1 -1 -1 -3 -4 -3 -3 -3 -3 -3 -3 -1 2 3 4 5 7 7 7 7 6 6 6 6 5 6
-9 -8 -8 -7 -6 -4 -4 -4 -4 -4 -4 -4 -3 -3 -3 -3 -3 -2 -1 -1 -2 -2 -3 -3 -3 -3 -3 -3 -3 -2 -0 3 4 4 5 6 6 6 6 6 6 5 5 6
-7 -6 -7 -7 -6 -5 -5 -5 -5 -5 -4 -4 -4 -3 -3 -3 -1 -1 -1 -1 -2 -2 -3 -3 -3 -3 -3 -3 -3 -3 -2 1 3 4 4 5 6 6 6 6 6 6 6 6
-6 -6 -7 -7 -6 -5 -5 -6 -5 -5 -4 -4 -3 -3 -2 -2 -2 -1 -1 -2 -2 -2 -3 -3 -3 -4 -3 -3 -3 -2 -3 -1 2 3 4 4 4 4 5 5 6 6 6 6
-6 -7 -7 -8 -7 -7 -6 -6 -6 -5 -5 -5 -4 -4 -3 -3 -2 -1 -1 -2 -2 -2 -2 -2 -3 -4 -3 -4 -3 -3 -2 -3 -1 0 2 3 4 4 4 5 5 4 5 6
Height
1507 1514 1525 1526 1523 1523 1525 1527 1527 1521 1516 1510 1504 1485 1475 1474 1467 1462 1459 1456 1450 1451 1450 1450 1451 1454 1456 1456 1457 1459 1463 1465 1471 1474 1478 1480 1481 1486 1490 1493 1497 1500 1502 1504
1516 1525 1527 1525 1523 1522 1522 1522 1525 1517 1515 1514 1505 1479 1467 1463 1463 1460 1457 1452 1448 1445 1443 1440 1443 1446 1449 1450 1450 1453 1455 1458 1463 1467 1472 1476 1479 1483 1487 1491 1494 1498 1500 1503
1523 1532 1527 1524 1525 1522 1519 1522 1525 1526 1515 1509 1505 1481 1463 1462 1460 1457 1455 1451 1448 1444 1440 1436 1436 1437 1441 1443 1444 1446 1449 1451 1456 1460 1466 1471 1478 1481 1483 1486 1490 1493 1498 1501
1529 1532 1529 1527 1526 1526 1521 1521 1521 1519 1521 1520 1514 1511 1472 1467 1459 1456 1452 1449 1446 1443 1440 1436 1435 1433 1433 1435 1438 1439 1441 1443 1448 1451 1458 1461 1466 1469 1473 1480 1485 1490 1494 1498
1538 1534 1532 1530 1530 1527 1525 1521 1517 1518 1520 1523 1514 1526 1482 1469 1466 1459 1452 1449 1445 1442 1437 1434 1430 1428 1425 1428 1430 1431 1432 1435 1438 1442 1448 1454 1460 1466 1471 1477 1483 1487 1491 1495
1536 1534 1534 1534 1530 1527 1525 1518 1514 1512 1517 1549 1510 1516 1477 1476 1467 1459 1452 1450 1446 1439 1434 1429 1425 1422 1419 1419 1419 1422 1425 1427 1430 1434 1440 1445 1452 1457 1464 1470 1476 1481 1486 1491
1541 1538 1535 1535 1534 1526 1526 1525 1556 1550 1559 1539 1509 1507 1485 1471 1461 1459 1458 1453 1447 1440 1433 1426 1421 1416 1412 1410 1412 1413 1415 1418 1422 1427 1432 1438 1444 1450 1458 1463 1470 1475 1479 1483
1564 1565 1541 1539 1540 1539 1533 1533 1552 1558 1533 1518 1506 1500 1477 1463 1462 1464 1462 1457 1449 1440 1431 1424 1417 1412 1407 1403 1404 1406 1407 1410 1412 1417 1423 1430 1437 1442 1450 1456 1463 1468 1474 1478
1569 1556 1542 1541 1537 1538 1535 1543 1534 1536 1535 1529 1504 1492 1475 1462 1464 1461 1458 1453 1447 1438 1428 1419 1410 1406 1401 1396 1394 1396 1399 1401 1404 1409 1414 1420 1426 1432 1440 1448 1456 1462 1468 1474
1567 1573 1545 1539 1537 1536 1539 1536 1552 1546 1570 1542 1506 1492 1476 1470 1465 1460 1453 1450 1439 1429 1419 1409 1403 1400 1394 1390 1387 1387 1389 1391 1396 1401 1404 1409 1416 1423 1432 1439 1447 1454 1461 1467
1561 1567 1556 1545 1545 1541 1540 1539 1550 1551 1545 1531 1521 1494 1480 1476 1473 1465 1455 1449 1440 1427 1413 1405 1400 1394 1387 1381 1379 1377 1379 1382 1385 1391 1395 1399 1404 1412 1422 1429 1438 1447 1453 1460
1558 1566 1568 1554 1536 1538 1542 1543 1544 1566 1551 1532 1522 1500 1479 1477 1474 1471 1458 1446 1434 1422 1408 1402 1396 1388 1381 1374 1369 1366 1368 1369 1372 1380 1387 1390 1396 1401 1410 1418 1428 1438 1445 1453
1561 1571 1566 1563 1544 1539 1544 1541 1537 1541 1536 1527 1524 1497 1473 1476 1470 1466 1459 1443 1434 1422 1409 1399 1392 1384 1376 1366 1360 1357 1354 1356 1362 1368 1375 1381 1387 1391 1397 1408 1418 1428 1436 1445
1556 1552 1558 1553 1544 1540 1541 1537 1536 1538 1532 1517 1508 1493 1476 1472 1468 1459 1449 1443 1431 1418 1409 1396 1386 1379 1369 1360 1353 1347 1342 1344 1351 1357 1364 1370 1375 1381 1389 1399 1409 1419 1427 1436
1553 1556 1559 1548 1539 1538 1532 1528 1527 1530 1519 1525 1502 1495 1480 1472 1467 1460 1451 1439 1429 1415 1404 1395 1384 1373 1363 1355 1347 1340 1334 1336 1343 1349 1357 1360 1368 1375 1382 1391 1401 1411 1419 1427
1551 1550 1548 1541 1535 1531 1522 1520 1515 1511 1506 1506 1499 1487 1475 1468 1462 1455 1446 1438 1426 1413 1404 1392 1380 1369 1359 1351 1343 1336 1330 1330 1338 1344 1350 1356 1361 1369 1374 1382 1392 1403 1412 1420
1550 1546 1541 1526 1540 1542 1527 1511 1500 1494 1491 1495 1493 1476 1470 1464 1456 1450 1443 1438 1425 1412 1401 1391 1380 1369 1356 1347 1339 1332 1327 1328 1334 1339 1344 1349 1354 1361 1368 1375 1385 1394 1403 1412
1539 1540 1540 1527 1539 1523 1499 1490 1490 1490 1483 1479 1475 1470 1463 1456 1448 1445 1439 1432 1423 1412 1401 1390 1378 1363 1352 1342 1336 1330 1326 1326 1330 1334 1338 1343 1350 1356 1363 1370 1378 1388 1396 1404
1534 1537 1537 1529 1524 1503 1488 1486 1488 1483 1476 1472 1468 1464 1458 1451 1444 1437 1432 1426 1420 1412 1401 1390 1380 1366 1352 1341 1333 1330 1326 1325 1328 1330 1334 1339 1346 1353 1358 1365 1372 1381 1389 1397
1528 1527 1533 1545 1531 1514 1485 1480 1479 1476 1475 1460 1458 1459 1455 1447 1441 1430 1425 1422 1416 1409 1402 1389 1379 1366 1352 1338 1332 1329 1327 1324 1326 1328 1332 1338 1343 1349 1356 1362 1368 1375 1384 1392
1553 1552 1530 1523 1511 1495 1481 1476 1476 1481 1473 1461 1460 1453 1447 1444 1438 1427 1423 1419 1415 1407 1399 1390 1378 1366 1357 1344 1333 1328 1326 1324 1323 1327 1331 1336 1341 1346 1352 1358 1364 1371 1378 1386
1537 1535 1540 1544 1535 1499 1479 1477 1479 1467 1461 1461 1454 1448 1441 1435 1427 1422 1418 1417 1410 1402 1394 1387 1376 1367 1360 1349 1337 1330 1326 1325 1325 1326 1329 1334 1339 1344 1349 1355 1361 1366 1373 1380
1520 1512 1509 1506 1491 1478 1474 1472 1471 1463 1465 1455 1450 1442 1436 1431 1422 1418 1414 1411 1405 1397 1390 1385 1382 1372 1363 1353 1343 1334 1327 1325 1325 1327 1330 1333 1337 1342 1346 1351 1356 1361 1368 1374
1495 1497 1497 1493 1480 1473 1469 1464 1461 1458 1452 1445 1441 1438 1432 1426 1420 1415 1412 1408 1402 1398 1392 1387 1379 1370 1363 1356 1349 1341 1331 1325 1324 1326 1328 1330 1335 1339 1344 1348 1353 1357 1362 1368
1488 1491 1487 1480 1466 1463 1459 1455 1450 1445 1443 1439 1433 1430 1426 1422 1415 1412 1408 1405 1402 1398 1392 1385 1379 1373 1367 1360 1353 1345 1336 1328 1325 1326 1328 1331 1334 1337 1340 1344 1348 1352 1358 1364
1482 1482 1480 1473 1464 1462 1447 1440 1438 1439 1434 1430 1429 1423 1417 1416 1411 1408 1405 1403 1400 1397 1391 1386 1381 1374 1368 1364 1358 1350 1343 1335 1330 1327 1327 1329 1333 1336 1338 1343 1346 1351 1356 1362
Wind_Speed
12 12 9 6 5 2 2 3 6 4 3 15 8 26 24 25 31 29 32 37 43 35 44 44 39 33 27 28 35 39 41 41 38 37 33 31 31 27 25 22 20 18 17 16
6 11 4 3 3 4 3 3 4 9 12 11 10 29 24 20 14 23 27 33 37 36 37 41 39 37 32 27 30 37 40 42 41 42 38 35 34 30 26 24 22 20 19 19
9 2 6 3 5 14 4 3 4 7 16 6 11 11 5 9 17 21 21 25 28 32 34 36 34 38 36 32 27 31 38 41 41 44 42 38 32 31 30 30 27 25 23 21
6 6 6 4 7 9 4 4 8 12 11 4 9 8 5 8 15 9 22 26 32 32 37 37 35 38 37 37 31 30 36 44 44 46 45 43 40 41 39 34 30 28 25 23
2 6 5 6 8 8 4 10 13 11 8 6 2 2 7 8 6 16 22 30 38 35 39 43 44 40 34 36 35 34 35 41 47 47 47 46 43 40 38 35 32 29 28 26
2 3 2 4 10 2 9 8 5 1 2 3 3 2 7 5 15 20 23 33 38 45 45 43 41 38 37 32 32 34 34 40 46 49 48 48 46 44 41 38 37 34 32 30
6 4 7 4 5 6 15 7 4 6 5 3 4 8 9 16 20 17 21 29 36 38 37 42 43 44 42 34 30 32 36 39 44 49 50 48 47 46 42 41 39 39 37 36
5 8 8 10 1 4 5 4 3 3 4 11 10 6 5 18 26 25 34 34 45 47 47 43 51 51 47 39 33 32 36 38 39 45 51 49 48 48 44 43 40 41 39 37
3 6 9 10 9 0 4 3 4 4 6 6 4 6 12 14 16 25 33 40 44 50 44 47 51 50 48 38 33 33 33 39 41 41 43 50 51 50 48 45 42 41 40 38
3 3 8 10 6 1 3 4 4 2 4 5 6 13 11 17 20 27 28 42 53 53 53 53 51 45 48 39 32 29 33 37 40 43 43 46 50 53 48 48 46 43 42 40
3 3 6 6 2 5 4 2 3 2 2 4 6 5 10 20 21 26 30 46 49 56 48 45 42 44 38 37 32 32 34 34 40 43 46 46 48 50 51 51 47 44 43 41
2 3 2 8 11 7 4 3 4 3 7 7 13 12 16 11 25 29 37 45 46 52 40 40 40 40 37 31 29 30 35 41 43 43 47 50 48 50 51 52 49 46 44 43
2 2 4 9 4 3 4 3 7 6 9 15 11 9 13 23 22 32 34 48 40 44 44 39 43 39 37 31 28 29 31 40 44 45 48 49 50 52 51 52 50 47 44 45
17 4 7 10 11 9 13 15 14 13 8 14 12 21 26 19 21 31 39 34 39 40 42 46 47 39 36 34 30 29 27 31 41 47 47 49 51 53 51 50 50 48 45 46
4 6 5 8 15 15 18 19 17 14 19 10 22 22 19 15 18 28 37 31 43 40 46 47 46 42 38 32 30 28 21 26 39 45 44 48 49 50 49 48 50 49 47 44
2 6 4 16 17 17 23 19 18 20 21 17 21 23 9 24 26 25 35 37 39 37 41 48 47 46 39 29 25 30 17 23 35 39 42 44 46 47 49 47 50 49 46 44
9 6 8 16 3 5 10 10 15 8 5 6 8 12 12 15 18 21 27 33 39 41 41 46 45 43 39 28 24 25 15 20 32 35 38 45 47 46 47 46 47 48 47 45
13 11 5 12 2 12 8 4 5 7 15 10 11 12 18 21 26 24 25 27 36 42 44 45 48 49 39 26 20 18 11 15 27 32 38 43 44 44 43 43 45 46 46 46
17 7 4 4 8 17 18 13 14 12 17 12 9 14 21 26 21 19 25 33 33 38 47 41 43 46 43 29 18 13 10 13 23 30 35 38 40 40 41 40 42 44 44 45
5 9 4 3 11 15 16 16 14 4 13 20 14 10 15 23 12 12 34 39 37 32 41 40 44 47 48 35 17 10 9 6 18 25 30 32 36 36 36 34 40 41 42 43
2 3 9 10 14 14 12 12 16 8 11 10 18 33 31 13 20 36 38 37 34 32 30 41 36 42 47 43 26 12 5 5 6 22 23 26 30 30 31 34 37 37 40 41
5 4 3 1 3 20 21 13 8 12 42 43 40 37 35 37 36 31 33 32 31 32 30 32 40 41 41 45 39 23 10 3 5 16 20 25 26 28 29 31 31 32 37 40
5 7 7 7 13 31 39 38 43 51 35 39 38 41 41 35 38 30 30 29 29 31 31 28 28 36 39 41 45 39 19 4 7 10 22 20 22 27 29 30 33 32 36 40
7 19 9 16 22 30 39 41 42 39 46 47 46 41 42 38 39 30 28 27 28 28 27 26 26 34 41 39 40 42 31 8 3 8 7 24 25 29 32 32 32 33 37 41
18 11 10 19 28 33 33 35 38 39 34 40 35 32 34 39 41 29 26 24 25 25 25 24 23 23 30 36 38 40 40 25 5 3 11 14 15 17 25 29 31 34 35 37
10 7 8 13 33 30 40 46 43 37 39 43 38 40 45 42 38 32 26 22 22 22 21 22 22 22 23 23 31 35 38 37 22 6 5 13 16 16 22 24 25 28 31 30
Wind_Direction
35 58 39 7 38 150 205 232 269 271 304 335 309 288 297 301 285 279 281 284 287 282 286 283 282 282 281 268 254 249 244 241 236 230 228 223 218 215 215 211 212 210 203 196
51 57 337 325 52 35 338 314 334 307 337 328 298 295 304 287 275 282 286 288 293 297 296 288 281 277 275 276 261 247 243 242 237 232 235 230 222 216 217 215 211 210 206 201
79 71 341 28 41 20 0 47 318 297 325 278 335 286 8 325 326 330 331 322 314 310 308 308 298 282 278 273 268 252 242 241 237 232 232 231 225 222 217 214 212 209 207 203
77 4 11 11 32 12 348 347 310 304 335 312 43 291 356 2 338 335 331 333 334 327 329 324 314 305 290 275 270 264 252 240 236 232 231 230 230 220 217 215 212 208 207 204
323 349 3 20 354 343 281 312 290 294 293 328 335 296 277 344 337 328 321 323 322 325 325 321 317 317 303 291 272 267 252 241 235 233 232 232 230 231 224 216 215 211 209 205
29 335 37 351 321 322 304 298 326 86 147 38 245 127 300 0 310 312 313 323 323 326 321 324 323 320 306 300 280 264 252 241 235 234 232 231 231 231 224 219 214 212 210 207
340 354 338 58 338 329 3 6 358 4 10 231 348 305 265 294 289 297 324 326 333 336 329 324 329 332 314 298 288 266 249 241 236 234 232 231 231 233 229 224 217 212 210 208
23 343 9 348 43 292 340 42 105 304 318 296 283 245 262 291 307 336 340 339 328 325 319 317 316 320 327 301 288 274 254 241 229 233 233 231 231 232 230 228 222 220 216 214
49 303 321 312 327 166 341 23 294 271 253 271 240 281 299 298 349 341 336 337 330 325 318 314 316 315 317 312 284 275 258 246 237 233 235 233 230 231 228 227 224 224 220 218
257 301 300 316 334 69 97 279 24 349 345 302 285 300 285 329 333 337 335 332 326 320 311 307 310 307 312 308 287 267 258 253 245 236 236 235 233 230 230 228 223 222 221 219
149 142 292 345 338 313 346 58 5 133 209 280 303 282 294 308 330 338 326 323 322 318 306 300 307 311 309 301 288 262 252 248 243 239 234 231 233 231 228 228 224 223 223 218
350 195 262 242 281 294 164 203 118 112 283 271 271 272 274 327 325 331 321 324 324 330 318 307 315 317 316 305 294 274 255 241 240 239 232 230 230 230 226 226 224 220 222 218
320 296 307 337 355 339 92 282 304 269 282 259 273 286 297 317 323 325 326 329 328 335 336 324 318 322 322 316 304 290 264 244 234 231 228 224 225 227 226 224 223 219 219 217
292 239 197 258 256 291 282 276 273 272 271 272 275 287 294 316 327 328 331 325 328 341 336 333 325 315 321 321 315 304 271 240 225 223 215 213 218 224 224 221 221 218 217 215
159 236 198 235 275 275 270 275 276 257 251 257 275 282 285 316 318 322 327 327 332 333 340 332 324 321 324 322 322 318 277 225 218 215 209 209 212 219 221 220 219 218 216 214
305 271 300 282 268 264 272 273 271 264 262 260 257 265 290 304 304 327 332 328 327 331 333 335 331 331 327 323 323 325 287 218 217 210 209 208 208 211 219 219 217 216 215 212
265 273 293 286 261 306 278 244 243 244 230 211 256 280 297 292 295 318 325 329 327 332 325 337 331 330 333 326 324 326 305 216 211 206 206 208 210 208 215 217 215 213 213 211
255 263 264 285 333 277 244 242 252 240 268 260 263 277 275 275 286 294 325 326 331 338 329 331 345 345 342 332 324 317 308 221 206 207 208 210 211 211 209 215 213 212 211 211
218 236 271 247 253 285 290 274 268 268 282 265 258 264 284 305 300 292 331 329 325 337 341 336 351 349 351 347 333 313 321 216 205 208 210 212 213 212 209 210 210 210 210 209
206 211 203 253 282 282 286 306 278 285 283 275 243 272 297 325 314 306 324 327 330 334 338 346 349 2 1 359 352 342 323 294 214 211 212 213 213 215 216 215 207 208 209 211
341 328 230 259 271 281 281 291 288 250 275 336 301 316 311 305 290 296 312 319 324 331 335 345 355 5 3 4 5 4 352 314 209 205 214 213 213 214 215 211 206 208 207 210
187 237 236 1 255 278 279 318 282 308 315 310 304 302 300 301 299 300 309 316 325 333 336 345 353 3 3 7 12 9 6 309 225 201 212 214 211 210 210 210 209 207 207 207
273 196 262 250 267 278 284 285 286 290 290 294 297 299 300 300 299 303 309 315 328 336 341 343 347 358 2 11 12 12 4 355 220 207 216 214 210 209 207 207 204 204 207 208
248 250 261 283 276 279 286 285 282 278 286 287 289 288 295 299 311 300 306 317 330 335 342 340 346 0 359 5 14 10 13 11 229 190 218 213 206 210 211 210 210 207 207 208
276 298 281 281 285 295 293 288 283 281 285 290 290 290 299 305 306 296 304 319 325 332 340 348 350 358 356 1 2 14 12 20 30 205 209 209 203 208 210 211 212 212 214 214
267 267 288 291 298 297 291 290 287 288 288 288 286 294 294 298 296 299 297 311 321 326 338 346 351 352 357 355 1 7 16 16 22 26 213 209 207 214 213 210 211 216 217 216